Temp
18 19 19 18 18 18 17 17 17 16 16 16 16 16 16 16 16 16 16 16 16 16 16 16 16 17 17 16 16 16 16 17 17 16 15 15 15 15 16 16 15 16 16
18 19 19 18 18 18 18 17 17 16 16 16 16 16 16 16 16 16 15 16 15 16 16 16 15 16 16 17 17 16 16 16 16 16 15 15 15 15 15 16 16 16 16
19 19 19 19 18 18 18 17 17 17 16 16 16 16 16 16 16 15 15 14 14 16 16 16 16 16 16 16 16 16 16 16 16 15 14 14 14 14 15 15 15 16 16
20 21 19 19 18 18 18 17 17 17 16 16 15 15 15 15 15 15 14 13 15 15 15 15 15 15 15 15 15 16 16 15 15 15 14 13 13 14 14 15 15 15 15
20 21 20 19 18 18 17 17 17 17 16 16 15 14 14 15 15 15 15 14 15 15 15 15 15 15 16 16 16 16 15 15 15 14 15 14 13 13 14 14 15 15 15
21 20 20 19 19 18 17 17 16 16 16 16 14 15 14 14 15 16 15 16 15 15 14 15 15 15 16 16 16 16 15 15 15 15 14 14 13 14 14 14 14 15 14
20 19 20 20 18 17 17 17 17 16 16 15 15 14 15 15 15 16 16 16 16 15 15 15 15 16 16 16 16 16 16 15 15 15 14 15 15 15 15 14 14 14 14
20 19 19 19 19 18 17 16 16 16 16 15 15 14 15 15 15 17 16 16 16 15 15 15 16 16 16 16 16 15 16 15 16 15 15 15 15 15 15 14 14 14 14
19 19 19 19 19 18 17 17 16 16 16 15 15 15 14 15 15 16 16 16 16 16 16 16 16 16 15 15 15 15 15 15 15 15 16 15 15 15 15 15 14 14 14
19 19 19 19 19 19 18 18 17 16 16 15 14 15 15 15 15 16 16 16 16 16 16 16 15 15 15 15 15 15 15 15 15 15 15 14 15 15 14 14 14 14 14
19 19 20 19 19 18 18 18 17 17 16 15 14 14 14 14 15 16 16 16 16 16 16 16 15 15 15 15 15 15 15 14 14 14 14 14 14 14 14 14 14 14 14
19 20 19 19 19 19 18 17 17 17 16 15 15 14 14 14 14 15 16 16 16 16 15 15 15 15 15 15 14 14 14 14 14 14 14 14 14 14 14 13 13 13 13
18 18 19 19 18 17 17 17 17 17 16 15 15 15 14 14 14 14 16 16 16 16 15 15 15 14 14 14 14 14 14 14 14 14 14 13 13 13 13 13 13 12 12
19 18 18 18 17 17 16 16 16 16 16 15 15 14 14 14 15 15 16 16 16 15 15 15 14 14 14 14 14 13 13 13 13 13 13 13 13 13 13 13 12 12 11
19 19 18 18 18 18 17 16 15 15 17 16 15 14 14 14 15 15 15 15 15 15 15 15 14 14 14 13 13 13 13 13 12 12 12 12 12 12 12 12 11 10 8
20 20 19 17 18 17 18 17 17 16 15 16 15 14 14 14 14 15 14 14 15 15 14 15 14 14 13 13 13 13 13 13 12 12 12 12 12 11 11 11 10 8 7
19 19 18 17 16 17 17 17 16 16 15 14 14 14 13 13 13 14 14 14 14 14 14 14 14 13 13 13 13 13 13 13 12 12 12 12 11 11 11 10 6 6 6
18 17 17 17 16 15 15 15 15 14 13 12 12 12 12 13 13 13 13 13 13 14 14 14 13 13 13 13 12 12 12 12 12 11 11 11 12 11 11 10 9 9 8
17 16 16 15 15 15 14 13 12 12 11 11 11 11 11 11 11 11 12 12 12 13 13 13 13 13 12 12 12 11 11 11 11 11 11 11 11 10 10 9 8 7 7
14 15 15 15 14 13 13 12 11 10 10 10 10 10 10 9 10 10 10 10 11 12 12 13 13 12 12 12 11 11 11 11 10 10 10 10 10 10 9 9 8 8 7
12 14 14 13 13 12 12 11 10 10 9 9 9 9 9 9 9 9 9 9 9 10 12 12 12 11 11 10 10 9 9 10 10 10 10 10 10 9 9 8 8 8 7
13 12 13 13 12 11 10 9 9 9 9 8 8 8 8 8 8 7 7 7 8 8 9 10 11 11 10 10 10 9 8 8 9 9 10 10 9 9 8 8 7 7 7
12 13 13 13 12 11 9 9 9 9 9 8 8 7 7 7 7 6 6 6 6 7 7 8 10 10 10 10 10 10 8 8 9 7 8 8 9 8 8 8 7 6 7
9 10 10 10 11 11 10 9 7 7 7 7 6 6 6 6 5 5 5 5 5 6 6 7 8 9 9 9 9 9 9 10 9 7 7 7 7 8 8 8 7 6 6
7 9 9 9 7 7 7 8 8 8 7 6 6 5 5 6 5 5 4 4 4 4 4 5 6 7 7 9 9 10 8 8 9 10 10 10 9 9 7 7 6 6 6
7 7 7 7 8 7 7 7 6 7 8 7 6 5 5 5 5 5 4 3 3 3 3 3 4 5 6 7 8 8 9 9 8 8 8 9 9 9 9 9 8 6 5
Height
1529 1530 1533 1535 1538 1540 1541 1543 1545 1547 1549 1551 1552 1554 1555 1556 1557 1558 1559 1560 1561 1561 1561 1562 1562 1562 1563 1563 1564 1564 1565 1566 1566 1567 1569 1568 1569 1569 1568 1568 1568 1568 1568
1527 1529 1532 1534 1537 1539 1541 1543 1545 1547 1549 1551 1552 1554 1555 1556 1557 1557 1558 1559 1560 1561 1561 1561 1562 1562 1563 1564 1564 1564 1565 1567 1567 1568 1569 1569 1570 1570 1570 1569 1569 1569 1569
1526 1528 1530 1533 1536 1538 1540 1542 1544 1546 1548 1550 1551 1553 1554 1555 1557 1557 1558 1558 1559 1560 1561 1562 1562 1563 1563 1564 1564 1565 1566 1567 1567 1569 1569 1570 1570 1569 1569 1569 1569 1570 1570
1524 1526 1529 1531 1534 1537 1539 1541 1543 1545 1547 1549 1551 1552 1553 1555 1556 1557 1558 1558 1558 1559 1560 1561 1562 1562 1563 1564 1564 1565 1566 1567 1568 1568 1569 1571 1570 1569 1569 1569 1569 1570 1570
1525 1525 1527 1529 1532 1535 1537 1540 1542 1544 1546 1548 1549 1551 1553 1554 1555 1556 1557 1557 1557 1559 1559 1560 1561 1561 1562 1563 1563 1564 1565 1566 1567 1568 1569 1569 1568 1569 1569 1568 1569 1568 1569
1524 1524 1526 1528 1530 1532 1535 1538 1540 1542 1544 1546 1548 1549 1551 1552 1553 1555 1555 1556 1556 1557 1558 1559 1560 1561 1561 1562 1562 1563 1564 1565 1565 1566 1568 1566 1567 1567 1568 1568 1567 1568 1568
1523 1524 1525 1527 1529 1531 1533 1535 1538 1540 1542 1544 1546 1547 1548 1550 1551 1552 1553 1553 1554 1556 1557 1558 1559 1559 1560 1561 1562 1562 1562 1563 1563 1565 1564 1565 1566 1566 1566 1567 1568 1567 1568
1521 1522 1524 1525 1527 1529 1531 1533 1535 1537 1540 1542 1543 1545 1546 1547 1548 1549 1550 1552 1552 1553 1555 1556 1557 1558 1559 1560 1561 1561 1562 1562 1563 1563 1562 1563 1564 1564 1564 1566 1567 1566 1567
1520 1520 1521 1523 1524 1526 1528 1530 1532 1534 1537 1539 1540 1542 1544 1545 1546 1547 1549 1549 1550 1552 1553 1554 1555 1556 1558 1558 1559 1560 1560 1561 1561 1562 1561 1562 1563 1563 1563 1563 1564 1564 1565
1518 1518 1519 1519 1521 1522 1524 1526 1528 1531 1533 1535 1536 1539 1541 1542 1543 1545 1546 1547 1548 1550 1551 1552 1554 1555 1556 1557 1558 1558 1559 1560 1560 1560 1561 1561 1561 1562 1561 1561 1562 1562 1563
1515 1514 1514 1515 1516 1518 1520 1522 1525 1527 1530 1532 1534 1536 1538 1539 1540 1542 1543 1544 1546 1547 1549 1550 1552 1554 1555 1556 1556 1556 1557 1558 1558 1558 1559 1559 1559 1560 1560 1560 1560 1561 1561
1510 1510 1509 1510 1511 1513 1516 1518 1520 1523 1525 1528 1530 1532 1535 1536 1538 1539 1541 1542 1543 1545 1547 1548 1550 1552 1553 1554 1555 1555 1556 1556 1556 1556 1557 1557 1557 1557 1558 1558 1558 1559 1559
1505 1506 1507 1508 1510 1511 1512 1514 1516 1519 1521 1523 1525 1528 1531 1532 1534 1536 1538 1539 1541 1543 1544 1546 1549 1550 1551 1552 1553 1554 1555 1555 1556 1555 1555 1555 1555 1555 1556 1555 1555 1556 1556
1504 1503 1503 1504 1505 1507 1509 1511 1512 1514 1517 1520 1522 1524 1527 1527 1530 1532 1534 1536 1538 1540 1542 1544 1546 1548 1549 1550 1552 1552 1553 1553 1553 1553 1554 1554 1554 1554 1553 1553 1553 1554 1554
1500 1501 1500 1499 1500 1502 1504 1506 1508 1510 1511 1516 1518 1520 1522 1523 1525 1528 1531 1533 1535 1537 1539 1541 1543 1545 1547 1548 1549 1550 1550 1550 1551 1551 1551 1551 1551 1552 1552 1552 1552 1552 1553
1496 1495 1497 1497 1496 1498 1499 1501 1503 1506 1508 1509 1513 1515 1516 1519 1521 1524 1527 1529 1531 1533 1536 1538 1540 1542 1544 1545 1546 1548 1548 1548 1549 1549 1549 1549 1550 1550 1550 1550 1551 1551 1551
1492 1491 1491 1493 1493 1493 1495 1497 1500 1501 1504 1506 1507 1511 1512 1514 1517 1520 1523 1525 1527 1530 1533 1535 1537 1539 1541 1542 1544 1545 1546 1546 1547 1547 1547 1547 1547 1547 1547 1548 1549 1550 1549
1486 1488 1487 1488 1490 1491 1492 1494 1496 1498 1500 1503 1505 1507 1508 1510 1512 1514 1517 1520 1524 1525 1528 1531 1533 1535 1537 1539 1541 1542 1543 1543 1544 1544 1544 1543 1544 1544 1544 1546 1546 1546 1547
1483 1482 1482 1483 1485 1488 1489 1491 1492 1494 1497 1499 1502 1503 1504 1505 1508 1510 1512 1515 1518 1520 1523 1525 1528 1531 1533 1535 1536 1538 1539 1540 1541 1540 1541 1540 1540 1541 1542 1542 1542 1543 1544
1479 1478 1478 1480 1481 1482 1484 1487 1490 1491 1492 1495 1497 1500 1501 1501 1504 1505 1507 1510 1512 1514 1517 1519 1522 1525 1527 1529 1530 1532 1534 1535 1536 1536 1537 1538 1538 1538 1539 1539 1539 1540 1541
1478 1476 1475 1476 1478 1479 1480 1482 1484 1487 1489 1491 1493 1496 1498 1498 1499 1502 1503 1504 1506 1507 1511 1514 1516 1518 1520 1524 1526 1528 1527 1528 1530 1531 1533 1534 1535 1535 1536 1537 1537 1538 1539
1479 1478 1477 1475 1475 1476 1479 1480 1481 1482 1485 1487 1489 1492 1494 1495 1495 1496 1499 1500 1500 1502 1506 1508 1510 1512 1515 1516 1518 1522 1524 1525 1524 1524 1526 1528 1530 1531 1531 1532 1533 1534 1534
1480 1480 1480 1480 1477 1477 1479 1479 1478 1479 1481 1485 1486 1488 1489 1490 1491 1492 1494 1495 1495 1496 1500 1503 1505 1506 1506 1508 1511 1516 1516 1516 1519 1520 1521 1522 1523 1525 1526 1528 1529 1530 1530
1484 1484 1482 1482 1482 1480 1478 1478 1479 1477 1477 1480 1481 1482 1484 1486 1487 1486 1487 1489 1490 1490 1492 1495 1498 1501 1502 1503 1505 1508 1507 1507 1507 1512 1515 1517 1518 1519 1521 1522 1524 1526 1525
1490 1486 1485 1484 1485 1485 1483 1480 1480 1476 1474 1475 1477 1479 1478 1478 1481 1483 1483 1483 1484 1484 1486 1489 1490 1491 1493 1496 1497 1501 1503 1503 1502 1503 1503 1506 1509 1512 1515 1517 1519 1521 1521
1492 1491 1490 1488 1483 1486 1487 1485 1484 1481 1472 1472 1474 1475 1475 1474 1473 1475 1477 1478 1478 1479 1478 1480 1483 1484 1486 1488 1490 1493 1494 1496 1496 1497 1498 1499 1501 1502 1504 1507 1511 1514 1514
Wind_Speed
10 11 20 20 20 18 16 14 12 9 8 7 6 5 4 3 3 4 4 4 3 2 2 3 4 4 1 2 2 4 4 4 6 8 6 5 6 6 6 7 8 8 8
11 12 19 20 20 19 17 15 13 11 10 8 7 6 4 3 2 3 3 2 3 3 2 3 3 2 2 2 1 2 3 3 4 6 6 5 3 3 3 4 4 5 5
11 13 19 20 21 19 17 15 13 12 10 9 8 8 6 5 5 5 4 4 4 4 2 2 2 1 1 1 2 2 2 3 4 5 7 4 3 2 1 1 2 2 2
8 11 18 20 20 20 19 17 15 13 11 10 9 9 9 9 9 8 6 6 8 5 3 2 3 3 2 1 0 1 2 2 4 6 7 7 4 3 2 1 1 1 1
10 10 16 19 20 20 20 18 16 15 14 13 12 10 10 10 11 9 9 10 11 6 5 5 5 5 5 5 5 4 4 3 4 5 3 7 5 5 3 2 1 2 2
10 15 15 19 21 21 21 20 18 17 16 15 14 13 12 12 10 9 8 10 10 8 7 8 7 7 6 6 6 6 6 6 7 7 5 11 11 6 4 2 2 3 3
10 16 16 17 22 22 22 21 20 19 18 17 16 15 15 14 14 11 12 11 10 9 8 8 7 6 6 4 3 3 4 6 7 7 10 12 11 10 7 6 6 5 5
10 14 18 18 19 23 24 23 22 22 20 19 19 19 18 15 15 11 11 11 10 9 9 8 6 5 3 2 2 2 2 4 4 5 8 9 9 8 6 7 8 8 8
10 13 17 18 20 23 24 24 24 24 22 22 22 21 19 16 16 12 12 11 10 10 9 7 6 6 4 3 3 2 3 4 3 5 9 6 7 7 6 7 8 9 9
12 16 17 19 20 22 24 25 25 25 25 24 25 23 21 19 18 15 14 13 12 11 9 8 7 6 5 4 4 3 4 5 5 7 7 7 8 8 7 7 8 9 9
16 18 19 20 21 23 25 26 26 26 26 26 27 26 24 23 21 17 17 16 14 13 12 11 9 8 6 5 5 5 5 6 6 8 6 8 8 8 8 8 8 9 9
17 20 23 22 24 24 25 27 27 28 28 28 29 29 27 27 24 21 20 18 17 15 14 14 12 11 10 9 7 7 6 7 7 9 8 8 9 9 9 8 8 8 9
21 22 22 24 24 26 26 26 27 29 31 31 31 31 30 30 27 25 24 22 21 19 18 17 14 14 12 10 9 8 8 8 8 9 9 9 10 10 10 10 9 9 8
19 24 26 23 26 28 28 29 29 29 31 33 34 34 32 32 30 29 26 24 23 22 21 19 18 17 14 12 10 10 9 8 8 8 8 9 9 10 11 10 9 8 7
22 18 26 29 26 27 30 30 32 33 32 30 33 34 34 35 32 30 28 27 26 25 24 23 21 18 17 15 14 12 11 9 9 9 8 8 9 9 10 9 7 4 2
24 24 20 29 30 27 28 31 32 33 33 32 30 34 37 37 36 32 30 30 29 27 27 25 22 21 19 18 16 14 12 11 10 10 9 9 9 10 10 10 6 4 9
16 21 23 22 29 29 27 28 31 33 32 33 33 32 35 37 36 34 32 33 31 30 28 26 26 25 23 21 20 17 16 14 13 11 10 10 10 10 11 11 8 11 8
12 9 15 18 21 27 27 27 30 30 32 32 33 34 36 37 36 35 34 34 34 33 31 29 29 28 26 24 22 20 19 17 14 12 11 12 11 12 12 11 10 12 9
15 12 13 8 16 20 25 27 27 28 29 30 31 32 35 37 35 36 36 36 36 36 34 33 32 30 28 27 25 24 22 19 16 15 13 14 12 13 13 14 13 12 11
6 12 16 17 11 14 18 21 23 24 25 26 29 30 30 35 34 35 36 37 37 38 37 36 34 32 31 29 28 26 24 22 19 18 16 15 15 15 15 17 17 15 15
13 9 2 5 10 10 13 14 18 23 20 21 25 23 25 28 34 33 35 38 39 41 39 37 36 35 34 32 29 26 25 24 22 22 20 19 18 18 18 18 18 17 16
24 23 18 11 4 5 6 8 10 10 11 15 16 22 23 23 28 32 32 36 40 41 40 39 39 38 36 36 35 28 19 25 25 26 24 23 20 21 20 19 19 18 19
24 25 22 18 12 5 1 8 10 13 14 13 16 19 21 24 24 26 30 33 38 40 40 41 41 42 43 41 39 27 13 13 18 25 26 26 24 23 23 22 21 20 21
24 23 23 21 18 13 7 3 3 4 4 5 6 12 15 20 24 28 30 32 34 39 41 42 43 44 44 44 41 40 34 21 15 13 21 26 27 25 25 24 23 22 24
23 22 23 22 22 18 13 9 4 4 4 7 8 11 13 15 16 18 24 29 30 35 39 41 44 46 47 47 47 45 42 29 24 25 21 24 26 26 27 26 25 24 26
19 20 20 20 20 21 20 17 13 8 7 4 4 7 8 10 11 11 14 21 28 30 36 39 42 45 46 48 48 48 48 46 37 30 26 25 25 26 28 29 29 29 28
Wind_Direction
204 180 187 189 188 185 185 183 186 188 195 199 200 198 193 162 143 144 144 159 178 208 257 293 311 347 41 93 106 98 82 70 70 76 84 68 70 85 90 77 79 82 77
212 195 188 193 196 198 200 202 203 203 207 206 208 214 199 189 190 199 188 210 210 230 266 296 297 330 15 75 106 113 115 103 91 87 76 43 53 84 85 70 76 68 67
216 198 190 194 199 206 208 209 210 211 210 203 203 203 212 210 211 221 233 226 236 247 261 292 301 327 7 76 92 94 113 122 113 112 85 24 14 32 62 53 57 59 50
230 204 198 198 201 206 209 211 212 213 213 213 204 207 213 224 231 232 214 226 253 266 265 272 291 303 303 310 246 173 170 156 144 154 158 137 301 292 324 299 299 306 12
207 211 205 207 206 208 209 211 212 215 216 218 215 216 227 232 236 237 236 239 259 261 263 272 278 280 280 278 263 245 230 211 200 205 192 165 213 246 230 288 263 323 322
210 213 214 211 213 215 214 214 216 219 221 223 220 223 229 237 251 251 248 243 247 251 254 266 269 270 267 268 264 253 239 228 225 224 196 207 228 247 246 225 298 267 272
221 212 219 219 217 217 219 221 222 224 227 225 227 229 234 243 256 266 242 240 242 236 241 254 263 265 264 248 237 226 229 229 232 228 217 236 242 256 261 254 251 268 279
237 225 226 228 223 223 221 221 225 230 229 227 226 230 236 240 248 263 239 240 237 235 237 239 243 239 220 195 178 179 195 222 237 229 238 244 253 258 257 256 259 262 265
245 241 238 234 230 227 228 227 226 228 228 227 229 235 238 241 253 263 246 242 240 240 239 232 215 201 198 195 198 206 225 245 254 249 259 268 273 270 262 260 260 263 266
246 253 242 241 232 231 230 230 230 228 227 228 229 231 236 241 250 260 246 239 236 238 240 234 220 209 201 203 214 221 232 247 247 252 267 272 276 276 272 268 271 270 270
256 249 252 243 238 232 233 233 232 228 229 230 231 232 236 241 247 252 243 235 232 230 228 224 219 217 221 228 235 241 247 253 254 262 268 268 269 270 270 268 268 269 271
261 252 250 245 242 239 235 236 233 230 227 226 228 231 235 241 247 251 241 237 233 232 229 222 215 214 218 223 230 244 254 261 265 269 272 273 271 270 271 269 270 271 273
272 272 262 251 243 240 239 236 235 231 230 227 230 234 236 241 243 247 242 235 232 228 227 225 218 220 222 225 226 233 240 250 254 262 266 267 269 270 269 269 270 273 273
266 259 268 264 249 241 238 237 240 239 236 230 231 235 237 242 241 242 241 238 235 232 229 225 220 223 223 226 229 232 237 247 259 264 263 263 264 264 264 265 266 271 277
267 263 254 263 258 249 241 239 236 242 246 242 233 236 239 243 246 243 242 239 237 234 232 230 223 223 225 227 229 232 238 245 255 265 267 268 267 263 264 266 262 264 101
291 289 272 252 262 255 247 244 244 243 246 251 244 238 241 244 248 248 242 239 237 236 234 233 228 227 227 228 231 236 243 249 257 263 267 267 264 264 261 262 242 186 194
296 281 281 262 252 256 253 249 245 248 246 245 249 243 243 246 247 248 243 239 239 239 235 233 229 228 229 230 232 235 240 244 248 253 261 263 265 260 254 237 176 182 173
264 280 286 282 257 254 257 252 250 245 246 245 246 246 246 248 248 248 243 239 240 241 239 235 232 231 232 233 235 236 239 243 248 253 256 261 261 257 252 248 252 248 247
254 243 233 273 271 266 258 255 253 253 245 245 242 246 249 251 250 249 247 242 239 241 240 238 234 234 235 234 234 235 239 241 245 249 252 258 260 256 247 238 230 230 228
274 246 240 228 231 257 258 253 247 247 250 244 247 243 247 254 253 249 248 245 241 241 239 237 235 233 234 234 235 237 241 242 243 248 248 251 250 253 247 243 241 236 234
55 60 60 225 221 241 252 252 241 235 243 245 240 241 240 246 257 253 250 246 244 243 242 240 236 231 229 228 230 231 235 240 241 244 246 249 249 250 249 242 243 239 237
57 53 55 65 119 217 228 225 229 227 236 247 258 248 241 247 253 258 254 248 246 246 242 239 237 231 229 230 226 229 233 239 239 242 244 247 247 248 248 243 241 239 236
55 54 51 52 63 74 181 234 235 226 234 231 239 244 249 243 247 255 257 253 251 250 248 245 241 236 233 231 231 223 210 225 233 237 239 242 245 246 245 245 242 236 236
54 52 50 48 49 56 75 128 200 195 209 195 267 275 272 261 255 256 255 260 255 255 251 247 245 242 239 237 232 229 230 231 207 214 237 241 244 245 245 244 239 234 238
52 53 53 50 48 45 47 53 65 137 158 187 222 260 275 277 280 270 260 259 256 254 256 253 248 244 241 240 239 238 230 228 230 233 229 234 238 241 243 240 239 237 239
53 49 47 48 53 48 45 43 38 38 60 68 241 284 291 297 294 292 274 260 256 254 253 255 255 252 249 246 243 241 240 233 226 229 232 235 239 242 246 248 244 240 240